Change the Weather History Date:

Tuesday, June 4, 2013

  Actual Average Record
Temperature  
Mean Temperature 84 °F -  
Max Temperature 102 °F 90 °F 107 °F (2014)
Min Temperature 66 °F 56 °F 50 °F (1955)
Cooling Degree Days 19    
Growing Degree Days 34 (Base 50)    
Moisture  
Dew Point 25 °F    
Average Humidity 13    
Maximum Humidity 35    
Minimum Humidity 6    
Precipitation  
Precipitation 0.00 in - - ()
Sea Level Pressure  
Sea Level Pressure 29.86 in    
Wind  
Wind Speed 10 mph (WSW)    
Max Wind Speed 24 mph    
Max Gust Speed 32 mph    
Visibility 10 miles    
Events      
Averages and records for this station are not official NWS values.
T = Trace of Precipitation, MM = Missing Value Source: NWS Daily Summary

Daily Weather History Graph

Daily Weather History Graph

Search for Another Location

Airport or City:

Trip Planner

Search our weather history database for the weather conditions in past years. The results will help you decide how hot, cold, wet, or windy it might be!

Date:

Astronomy

Jun. 04, 2013 Rise Set
Actual Time 5:49 AM MDT 8:03 PM MDT
Civil Twilight 5:21 AM MDT 8:31 PM MDT
Nautical Twilight 4:46 AM MDT 9:06 PM MDT
Astronomical Twilight 4:09 AM MDT 9:43 PM MDT
Moon 3:10 AM MDT (6/4) 4:43 PM MDT (6/4)
Length of Visible Light 15h 09m
Length of Day
14h 13m
Waning Crescent, 14% of the Moon is Illuminated
Jun 4
Waning Crescent
Jun 8
New
Jun 16
First Quarter
Jun 23
Full
Jun 29
Last Quarter

Hourly Weather History & Observations

Time (MDT) Temp. Dew Point Humidity Pressure Visibility Wind Dir Wind Speed Gust Speed Precip Events Conditions
12:15 AM 78.8 °F 35.6 °F 21% 29.84 in 10.0 mi WSW 15.0 mph - N/A   Clear
12:35 AM 77.0 °F 37.4 °F 24% 29.84 in 10.0 mi WSW 12.7 mph - N/A   Clear
12:55 AM 77.0 °F 35.6 °F 22% 29.84 in 10.0 mi WSW 11.5 mph - N/A   Clear
1:15 AM 75.2 °F 35.6 °F 24% 29.84 in 10.0 mi WSW 10.4 mph - N/A   Clear
1:35 AM 75.2 °F 33.8 °F 22% 29.83 in 10.0 mi WSW 11.5 mph - N/A   Clear
1:55 AM 71.6 °F 35.6 °F 27% 29.85 in 10.0 mi SW 8.1 mph - N/A   Clear
2:15 AM 71.6 °F 33.8 °F 25% 29.85 in 10.0 mi WSW 9.2 mph - N/A   Clear
2:35 AM 68.0 °F 35.6 °F 30% 29.85 in 10.0 mi SSE 9.2 mph - N/A   Clear
2:55 AM 71.6 °F 35.6 °F 27% 29.85 in 10.0 mi South 8.1 mph - N/A   Clear
3:15 AM 68.0 °F 37.4 °F 33% 29.85 in 10.0 mi South 5.8 mph - N/A   Clear
3:35 AM 68.0 °F 37.4 °F 33% 29.85 in 10.0 mi South 9.2 mph - N/A   Clear
3:55 AM 66.2 °F 37.4 °F 35% 29.85 in 10.0 mi South 9.2 mph - N/A   Clear
4:15 AM 69.8 °F 37.4 °F 31% 29.86 in 10.0 mi SW 8.1 mph - N/A   Clear
4:35 AM 71.6 °F 32.0 °F 23% 29.86 in 10.0 mi SSW 6.9 mph - N/A   Clear
4:55 AM 69.8 °F 33.8 °F 27% 29.86 in 10.0 mi SSW 4.6 mph - N/A   Clear
5:15 AM 71.6 °F 26.6 °F 19% 29.87 in 10.0 mi WNW 3.5 mph - N/A   Clear
5:35 AM 69.8 °F 24.8 °F 18% 29.88 in 10.0 mi Calm Calm - N/A   Clear
5:55 AM 71.6 °F 21.2 °F 15% 29.89 in 10.0 mi North 3.5 mph - N/A   Clear
6:15 AM 69.8 °F 23.0 °F 17% 29.89 in 10.0 mi NW 5.8 mph - N/A   Clear
6:35 AM 68.0 °F 23.0 °F 18% 29.90 in 10.0 mi NW 9.2 mph - N/A   Clear
6:55 AM 73.4 °F 19.4 °F 13% 29.91 in 10.0 mi NW 9.2 mph - N/A   Clear
7:15 AM 75.2 °F 19.4 °F 12% 29.91 in 10.0 mi WNW 9.2 mph - N/A   Clear
7:35 AM 77.0 °F 17.6 °F 11% 29.91 in 10.0 mi West 10.4 mph - N/A   Clear
7:55 AM 80.6 °F 19.4 °F 10% 29.92 in 10.0 mi West 9.2 mph - N/A   Clear
8:15 AM 82.4 °F 17.6 °F 9% 29.92 in 10.0 mi West 6.9 mph - N/A   Clear
8:35 AM 84.2 °F 17.6 °F 8% 29.93 in 10.0 mi WNW 6.9 mph - N/A   Clear
8:55 AM 84.2 °F 17.6 °F 8% 29.93 in 10.0 mi NNW 5.8 mph - N/A   Clear
9:15 AM 86.0 °F 17.6 °F 8% 29.93 in 10.0 mi NNW 5.8 mph - N/A   Clear
9:35 AM 87.8 °F 19.4 °F 8% 29.93 in 10.0 mi NNE 4.6 mph - N/A   Clear
9:55 AM 89.6 °F 19.4 °F 8% 29.93 in 10.0 mi Calm Calm - N/A   Clear
10:15 AM 89.6 °F 21.2 °F 8% 29.93 in 3.0 mi NE 5.8 mph - N/A   Haze
10:35 AM 91.4 °F 23.0 °F 8% 29.93 in 10.0 mi NNW 4.6 mph - N/A   Clear
10:55 AM 93.2 °F 23.0 °F 8% 29.92 in 10.0 mi North 5.8 mph - N/A   Clear
11:15 AM 93.2 °F 24.8 °F 9% 29.92 in 10.0 mi NNE 8.1 mph - N/A   Clear
11:35 AM 95.0 °F 23.0 °F 8% 29.92 in 7.0 mi NE 10.4 mph 16.1 mph N/A   Clear
11:55 AM 95.0 °F 23.0 °F 8% 29.91 in 10.0 mi ENE 10.4 mph - N/A   Clear
12:15 PM 95.0 °F 19.4 °F 6% 29.90 in 9.0 mi NE 11.5 mph 17.3 mph N/A   Clear
12:35 PM 96.8 °F 19.4 °F 6% 29.90 in 10.0 mi NE 9.2 mph - N/A   Clear
12:55 PM 98.6 °F 21.2 °F 6% 29.89 in 10.0 mi SE 9.2 mph - N/A   Clear
1:15 PM 98.6 °F 21.2 °F 6% 29.88 in 10.0 mi East 9.2 mph - N/A   Clear
1:35 PM 98.6 °F 21.2 °F 6% 29.88 in 10.0 mi SSE 11.5 mph 19.6 mph N/A   Clear
1:55 PM 98.6 °F 21.2 °F 6% 29.87 in 10.0 mi SSE 5.8 mph - N/A   Clear
2:15 PM 100.4 °F 21.2 °F 6% 29.86 in 10.0 mi West 8.1 mph - N/A   Clear
2:35 PM 100.4 °F 23.0 °F 6% 29.85 in 10.0 mi WNW 6.9 mph - N/A   Clear
2:55 PM 100.4 °F 23.0 °F 6% 29.85 in 10.0 mi SW 12.7 mph 19.6 mph N/A   Clear
3:15 PM 100.4 °F 24.8 °F 7% 29.84 in 10.0 mi WSW 19.6 mph 27.6 mph N/A   Clear
3:35 PM 102.2 °F 23.0 °F 6% 29.83 in 10.0 mi SW 18.4 mph 31.1 mph N/A   Clear
3:55 PM 100.4 °F 23.0 °F 6% 29.83 in 10.0 mi WSW 23.0 mph 32.2 mph N/A   Clear
4:15 PM 100.4 °F 24.8 °F 7% 29.83 in 10.0 mi WSW 12.7 mph 20.7 mph N/A   Clear
4:35 PM 100.4 °F 23.0 °F 6% 29.82 in 10.0 mi SW 12.7 mph 19.6 mph N/A   Clear
4:55 PM 100.4 °F 23.0 °F 6% 29.81 in 10.0 mi West 16.1 mph 23.0 mph N/A   Clear
5:15 PM 100.4 °F 23.0 °F 6% 29.81 in 10.0 mi WSW 19.6 mph 28.8 mph N/A   Clear
5:35 PM 100.4 °F 23.0 °F 6% 29.80 in 10.0 mi SW 19.6 mph 31.1 mph N/A   Clear
5:55 PM 100.4 °F 23.0 °F 6% 29.80 in 10.0 mi SW 24.2 mph 29.9 mph N/A   Clear
6:15 PM 100.4 °F 23.0 °F 6% 29.80 in 10.0 mi SW 15.0 mph 26.5 mph N/A   Clear
6:35 PM 98.6 °F 23.0 °F 7% 29.81 in 10.0 mi WSW 17.3 mph 25.3 mph N/A   Clear
6:55 PM 98.6 °F 21.2 °F 6% 29.81 in 10.0 mi WSW 17.3 mph 23.0 mph N/A   Clear
7:15 PM 98.6 °F 21.2 °F 6% 29.81 in 10.0 mi SW 16.1 mph - N/A   Clear
7:35 PM 95.0 °F 21.2 °F 7% 29.81 in 10.0 mi SW 12.7 mph - N/A   Clear
7:55 PM 93.2 °F 19.4 °F 7% 29.82 in 10.0 mi SW 11.5 mph - N/A   Clear
8:15 PM 91.4 °F 21.2 °F 8% 29.82 in 10.0 mi SW 11.5 mph - N/A   Clear
8:35 PM 89.6 °F 21.2 °F 8% 29.82 in 10.0 mi SW 12.7 mph - N/A   Clear
8:55 PM 86.0 °F 21.2 °F 9% 29.83 in 10.0 mi WSW 12.7 mph - N/A   Clear
9:15 PM 84.2 °F 23.0 °F 11% 29.83 in 10.0 mi SW 11.5 mph - N/A   Clear
9:35 PM 84.2 °F 23.0 °F 11% 29.84 in 10.0 mi WSW 12.7 mph - N/A   Clear
9:55 PM 84.2 °F 23.0 °F 11% 29.84 in 10.0 mi WSW 11.5 mph - N/A   Clear
10:15 PM 82.4 °F 23.0 °F 11% 29.85 in 10.0 mi WSW 12.7 mph - N/A   Clear
10:35 PM 82.4 °F 24.8 °F 12% 29.85 in 10.0 mi WSW 13.8 mph - N/A   Clear
10:55 PM 80.6 °F 24.8 °F 13% 29.84 in 10.0 mi WSW 13.8 mph - N/A   Clear
11:15 PM 80.6 °F 24.8 °F 13% 29.84 in 10.0 mi WSW 10.4 mph - N/A   Clear
11:35 PM 77.0 °F 24.8 °F 14% 29.84 in 10.0 mi WSW 10.4 mph - N/A   Clear
11:55 PM 77.0 °F 24.8 °F 14% 29.84 in 10.0 mi WSW 10.4 mph - N/A   Clear